Regional Weather Roundup
Issued by NWS

Home | Current Version | Previous Version | Text Only | Print | Product List | Glossary On
Versions: 1 2 3 4 5 6 7 8 9 10 11 12 13 14 15 16 17 18 19 20 21 22 23 24 25 26 27 28
000
ASUS42 KKEY 210910
RWRKEY

FLORIDA REGIONAL WEATHER ROUNDUP FOR THE FLORIDA KEYS
NATIONAL WEATHER SERVICE KEY WEST FLORIDA
400 AM EST SAT JAN 21 2017

...SOUTH FLORIDA AND THE KEYS...

CITY           SKY/WX    TMP DP  RH WIND       PRES   REMARKS
FORT MYERS     PTCLDY    65  64  97 SE5       29.96F FOG
SW REGIONAL AP PTCLDY    60  59  96 CALM      29.97F FOG
NAPLES         CLEAR     64  63  96 CALM      29.97S FOG
MIAMI          PTCLDY    67  63  87 CALM      29.99S
WEST KENDALL   PTCLDY    62  60  93 CALM      29.99S
HOMESTEAD      CLEAR     60  60 100 CALM      29.98F
MARATHON       CLEAR     77  67  71 SE3       29.97F
BOCA CHICA NAS CLEAR     70  65  84 SE5       29.97F
KEY WEST INTL  CLEAR     75  66  73 S6        29.97F

...INTERNATIONAL WEATHER...

CITY           SKY/WX    TMP DP  RH WIND       PRES   REMARKS
NASSAU BAHAMAS PTCLDY    64  63  94 CALM      30.01S
CANCUN MEXICO  PTCLDY    77  72  83 SE12      29.88F
COZUMEL MEXICO PTCLDY    75  72  88 SE7       29.87F

ADJACENT COASTAL WATERS...

STATION/POSITION TIME  SKY/WX   TEMP    WIND        PRES    WAVE
                                AIR SEA DIR/SP/G            HT/PER
                 (UTC)          (F)     (DEG/KT/KT) (MB)    (FT/S)
PULASKI SHOAL LI 0900            76     180/ 10/ 12 1014.4F
SAND KEY         0850            76     170/  8/ 10 1015.2F
LONG KEY         0800            75 75  180/  7/  8 1015.5F
MOLASSES REEF    NOT AVBL
FOWEY ROCKS      0800            72 76  260/  5/  5 1016.2F

$$




USA.gov is the U.S. government's official web portal to all federal, state and local government web resources and services.